Seminole, TX

3:54 PM CDT on September 29, 2016 (GMT -0500)
Seminole

Weather History for KGNC - August, 2013

Change the Weather History Date:

Friday, August 30, 2013

  Actual Average (KHOB) Record (KHOB)
Temperature  
Mean Temperature 81 °F -  
Max Temperature 96 °F 89 °F 104 °F (2011)
Min Temperature 67 °F 63 °F 55 °F (2012)
Cooling Degree Days 16    
Growing Degree Days 31 (Base 50)    
Moisture  
Dew Point 51 °F    
Average Humidity 38    
Maximum Humidity 64    
Minimum Humidity 18    
Precipitation  
Precipitation 0.00 in - - ()
Sea Level Pressure  
Sea Level Pressure 30.11 in    
Wind  
Wind Speed 3 mph (South)    
Max Wind Speed 14 mph    
Max Gust Speed 20 mph    
Visibility 9 miles    
Events Rain    
Averages and records for this station are not official NWS values.
T = Trace of Precipitation, MM = Missing Value Source: NWS Daily Summary

Daily Weather History Graph

Daily Weather History Graph

Search for Another Location

Airport or City:

Trip Planner

Search our weather history database for the weather conditions in past years. The results will help you decide how hot, cold, wet, or windy it might be!

Date:

Astronomy

Aug. 30, 2013 Rise Set
Actual Time 7:24 AM CDT 8:17 PM CDT
Civil Twilight 6:59 AM CDT 8:42 PM CDT
Nautical Twilight 6:29 AM CDT 9:12 PM CDT
Astronomical Twilight 5:58 AM CDT 9:42 PM CDT
Moon 2:14 AM CDT (8/30) 4:25 PM CDT (8/30)
Length of Visible Light 13h 43m
Length of Day
12h 53m
Waning Crescent, 29% of the Moon is Illuminated
Aug 30
Waning Crescent
Sep 5
New
Sep 12
First Quarter
Sep 19
Full
Sep 26
Last Quarter

Hourly Weather History & Observations

Time (CDT) Temp. Heat Index Dew Point Humidity Pressure Visibility Wind Dir Wind Speed Gust Speed Precip Events Conditions
12:15 AM 73.4 °F - 51.8 °F 47% 30.14 in 10.0 mi Calm Calm - N/A   Clear
12:35 AM 73.4 °F - 52.7 °F 48% 30.14 in 10.0 mi Calm Calm - N/A   Clear
12:55 AM 73.0 °F - 53.1 °F 49% 30.14 in 7.0 mi Calm Calm - N/A   Clear
1:15 AM 72.7 °F - 54.0 °F 52% 30.14 in 7.0 mi Calm Calm - N/A   Clear
1:35 AM 72.5 °F - 54.1 °F 52% 30.14 in 7.0 mi Calm Calm - N/A   Clear
1:55 AM 72.5 °F - 54.0 °F 52% 30.14 in 7.0 mi Calm Calm - N/A   Clear
2:15 AM 71.8 °F - 54.1 °F 54% 30.14 in 7.0 mi Calm Calm - N/A   Clear
2:35 AM 72.0 °F - 54.7 °F 54% 30.14 in 7.0 mi Calm Calm - N/A   Clear
2:55 AM 72.9 °F - 55.4 °F 54% 30.14 in 5.0 mi Calm Calm - N/A   Haze
3:15 AM 72.5 °F - 55.4 °F 55% 30.14 in 7.0 mi Calm Calm - N/A   Clear
3:35 AM 72.1 °F - 55.4 °F 56% 30.14 in 7.0 mi Calm Calm - N/A   Clear
3:55 AM 71.1 °F - 55.8 °F 58% 30.14 in 7.0 mi Calm Calm - N/A   Clear
4:15 AM 70.0 °F - 55.9 °F 61% 30.14 in 7.0 mi Calm Calm - N/A   Clear
4:35 AM 69.6 °F - 55.4 °F 61% 30.14 in 10.0 mi Calm Calm - N/A   Clear
4:55 AM 69.4 °F - 55.6 °F 61% 30.14 in 7.0 mi Calm Calm - N/A   Clear
5:15 AM 69.3 °F - 55.4 °F 61% 30.14 in 10.0 mi Calm Calm - N/A   Clear
5:35 AM 68.4 °F - 55.6 °F 64% 30.14 in 10.0 mi Calm Calm - N/A   Clear
5:55 AM 68.0 °F - 55.4 °F 64% 30.14 in 5.0 mi Calm Calm - N/A   Haze
6:15 AM 68.2 °F - 55.4 °F 64% 30.15 in 7.0 mi Calm Calm - N/A   Clear
6:35 AM 68.0 °F - 55.0 °F 63% 30.15 in 10.0 mi Calm Calm - N/A   Clear
6:55 AM 67.8 °F - 55.2 °F 64% 30.15 in 10.0 mi Calm Calm - N/A   Clear
7:15 AM 68.0 °F - 55.0 °F 63% 30.15 in 10.0 mi Calm Calm - N/A   Clear
7:35 AM 68.4 °F - 55.2 °F 63% 30.16 in 10.0 mi Calm Calm - N/A   Clear
7:55 AM 68.9 °F - 55.4 °F 62% 30.16 in 7.0 mi Calm Calm - N/A   Clear
9:15 AM 77.5 °F - 55.6 °F 47% 30.18 in 10.0 mi SSW 9.2 mph - N/A   Clear
9:35 AM 79.0 °F - 55.8 °F 45% 30.18 in 7.0 mi SW 10.4 mph - N/A   Clear
9:55 AM 80.8 °F 80.6 °F 55.2 °F 41% 30.19 in 7.0 mi SSW 10.4 mph - N/A   Clear
10:15 AM 82.8 °F 81.7 °F 53.8 °F 37% 30.19 in 5.0 mi SSW 12.7 mph 16.1 mph N/A   Haze
10:35 AM 84.0 °F - 52.7 °F 34% 30.18 in 5.0 mi SSW 13.8 mph - N/A   Haze
10:55 AM 85.3 °F - 52.0 °F 32% 30.18 in 7.0 mi SSW 11.5 mph 17.3 mph N/A   Clear
11:15 AM 86.9 °F - 51.8 °F 30% 30.18 in 5.0 mi SSW 9.2 mph - N/A   Haze
11:35 AM 88.2 °F - 51.4 °F 28% 30.17 in 7.0 mi SSE 9.2 mph 17.3 mph N/A   Clear
11:55 AM 88.3 °F - 52.0 °F 29% 30.17 in 5.0 mi South 11.5 mph - N/A   Haze
12:15 PM 89.2 °F - 52.2 °F 28% 30.16 in 7.0 mi South 6.9 mph 16.1 mph N/A Rain Light Rain
12:35 PM 90.0 °F - 52.7 °F 28% 30.16 in 7.0 mi SSE 4.6 mph - N/A Rain Rain
12:55 PM 90.9 °F - 52.2 °F 27% 30.15 in 10.0 mi South 9.2 mph - N/A Rain Light Rain
1:15 PM 90.3 °F - 51.8 °F 27% 30.15 in 7.0 mi SSW 6.9 mph 16.1 mph N/A   Clear
1:35 PM 91.6 °F - 51.8 °F 26% 30.14 in 10.0 mi South 6.9 mph - N/A   Clear
1:55 PM 92.5 °F - 51.1 °F 24% 30.13 in 7.0 mi SE 3.5 mph - N/A   Clear
2:15 PM 92.8 °F - 50.5 °F 24% 30.12 in 10.0 mi South 8.1 mph - N/A   Clear
2:35 PM 92.5 °F - 50.7 °F 24% 30.11 in 10.0 mi SSW 4.6 mph - N/A   Clear
2:55 PM 94.3 °F - 50.7 °F 23% 30.11 in 10.0 mi SSW 9.2 mph 19.6 mph N/A   Clear
3:15 PM 94.6 °F - 50.9 °F 23% 30.10 in 10.0 mi SW 6.9 mph 18.4 mph N/A   Clear
3:35 PM 95.4 °F - 49.5 °F 21% 30.09 in 10.0 mi SSE 10.4 mph 19.6 mph N/A   Clear
3:55 PM 94.5 °F - 49.5 °F 22% 30.08 in 10.0 mi SSW 5.8 mph - N/A   Clear
4:15 PM 95.2 °F - 48.7 °F 20% 30.07 in 10.0 mi South 8.1 mph - N/A   Clear
4:35 PM 95.0 °F - 48.0 °F 20% 30.06 in 10.0 mi South 5.8 mph - N/A   Clear
4:55 PM 95.5 °F - 47.7 °F 19% 30.05 in 10.0 mi South 8.1 mph - N/A   Clear
5:15 PM 95.0 °F - 46.6 °F 19% 30.05 in 10.0 mi South 8.1 mph 17.3 mph N/A   Clear
5:35 PM 95.9 °F - 46.0 °F 18% 30.04 in 10.0 mi SE 10.4 mph - N/A   Clear
5:55 PM 95.0 °F - 45.3 °F 18% 30.04 in 10.0 mi SSE 4.6 mph - N/A   Clear
6:15 PM 95.0 °F - 45.0 °F 18% 30.04 in 10.0 mi Calm Calm - N/A   Clear
6:35 PM 95.0 °F - 44.6 °F 18% 30.04 in 10.0 mi South 5.8 mph - N/A   Clear
6:55 PM 94.3 °F - 44.2 °F 18% 30.04 in 10.0 mi South 6.9 mph - N/A   Clear
7:15 PM 93.6 °F - 43.7 °F 18% 30.04 in 10.0 mi South 6.9 mph - N/A   Clear
7:35 PM 92.7 °F - 43.9 °F 18% 30.04 in 10.0 mi SSE 6.9 mph - N/A   Clear
7:55 PM 91.2 °F - 43.9 °F 19% 30.03 in 10.0 mi Calm Calm - N/A   Clear
8:15 PM 88.7 °F - 45.1 °F 22% 30.04 in 10.0 mi Calm Calm - N/A   Clear
8:35 PM 86.2 °F - 46.0 °F 25% 30.04 in 10.0 mi Calm Calm - N/A   Clear
8:55 PM 83.7 °F - 45.5 °F 26% 30.04 in 10.0 mi Calm Calm - N/A   Clear
9:15 PM 81.9 °F - 46.6 °F 29% 30.04 in 10.0 mi Calm Calm - N/A   Clear
9:35 PM 81.5 °F - 45.9 °F 29% 30.05 in 10.0 mi Calm Calm - N/A   Clear
9:55 PM 79.7 °F - 46.2 °F 31% 30.05 in 10.0 mi Calm Calm - N/A   Clear
10:15 PM 78.8 °F - 45.9 °F 31% 30.06 in 10.0 mi Calm Calm - N/A   Clear
10:35 PM 77.7 °F - 46.0 °F 33% 30.05 in 10.0 mi Calm Calm - N/A   Clear
10:55 PM 77.5 °F - 45.5 °F 32% 30.06 in 10.0 mi Calm Calm - N/A   Clear
11:15 PM 76.5 °F - 45.9 °F 34% 30.06 in 10.0 mi Calm Calm - N/A   Clear
11:35 PM 75.9 °F - 45.9 °F 34% 30.06 in 10.0 mi Calm Calm - N/A   Clear
11:55 PM 74.7 °F - 47.3 °F 38% 30.06 in 10.0 mi Calm Calm - N/A   Clear